QPF
0.00 0.00 0.00 0.00 0.00 0.00 0.00 0.00 0.00 0.00 0.00 0.00 0.00 0.00 0.00 0.00 0.00 0.00 0.02 0.01 0.03 0.02 0.13 0.08 0.08 0.10 0.11 0.10 0.07 0.03 0.07 0.24 0.05 0.01 0.01 0.02 0.01 0.03 0.01 0.01 0.04 0.02 0.01
0.00 0.00 0.00 0.00 0.00 0.00 0.00 0.00 0.00 0.00 0.00 0.00 0.00 0.00 0.00 0.00 0.00 0.04 0.02 0.04 0.02 0.00 0.01 0.04 0.04 0.08 0.04 0.02 0.02 0.04 0.06 0.08 0.02 0.00 0.01 0.01 0.01 0.07 0.02 0.01 0.01 0.07 0.07
0.00 0.00 0.00 0.00 0.00 0.00 0.00 0.00 0.00 0.00 0.00 0.00 0.00 0.00 0.00 0.00 0.00 0.00 0.00 0.00 0.00 0.01 0.05 0.06 0.07 0.07 0.06 0.02 0.02 0.09 0.06 0.05 0.01 0.00 0.00 0.00 0.02 0.02 0.02 0.03 0.03 0.06 0.03
0.00 0.00 0.00 0.00 0.00 0.00 0.00 0.00 0.00 0.00 0.00 0.00 0.00 0.00 0.00 0.00 0.00 0.00 0.00 0.00 0.00 0.02 0.03 0.01 0.00 0.01 0.04 0.03 0.04 0.06 0.07 0.04 0.00 0.00 0.00 0.00 0.01 0.01 0.01 0.01 0.01 0.01 0.02
0.00 0.00 0.00 0.00 0.00 0.00 0.00 0.00 0.00 0.00 0.00 0.00 0.00 0.00 0.00 0.00 0.00 0.00 0.00 0.00 0.00 0.00 0.00 0.00 0.00 0.00 0.01 0.02 0.03 0.02 0.07 0.03 0.00 0.00 0.00 0.01 0.01 0.00 0.01 0.00 0.00 0.02 0.04
0.00 0.00 0.00 0.00 0.00 0.00 0.00 0.00 0.00 0.00 0.00 0.00 0.00 0.00 0.00 0.00 0.00 0.00 0.00 0.00 0.00 0.00 0.00 0.00 0.00 0.00 0.00 0.01 0.00 0.01 0.04 0.03 0.00 0.00 0.00 0.00 0.00 0.00 0.00 0.00 0.00 0.02 0.03
0.00 0.00 0.00 0.00 0.00 0.00 0.00 0.00 0.00 0.00 0.00 0.00 0.00 0.00 0.00 0.00 0.00 0.00 0.00 0.00 0.00 0.00 0.00 0.00 0.00 0.00 0.00 0.00 0.00 0.00 0.07 0.01 0.00 0.00 0.00 0.00 0.00 0.00 0.00 0.00 0.00 0.01 0.04
0.00 0.00 0.00 0.00 0.00 0.00 0.00 0.00 0.00 0.00 0.00 0.00 0.00 0.00 0.00 0.00 0.00 0.00 0.00 0.00 0.00 0.00 0.00 0.00 0.00 0.00 0.00 0.00 0.00 0.00 0.01 0.00 0.00 0.00 0.00 0.00 0.00 0.00 0.00 0.00 0.00 0.00 0.01
0.00 0.00 0.00 0.00 0.00 0.00 0.00 0.00 0.00 0.00 0.00 0.00 0.00 0.00 0.00 0.00 0.00 0.00 0.00 0.00 0.00 0.00 0.00 0.00 0.00 0.00 0.00 0.00 0.00 0.00 0.01 0.00 0.00 0.00 0.00 0.00 0.00 0.00 0.00 0.00 0.00 0.00 0.00
0.00 0.00 0.00 0.00 0.00 0.00 0.00 0.00 0.00 0.00 0.00 0.00 0.00 0.00 0.00 0.00 0.00 0.00 0.00 0.00 0.00 0.00 0.00 0.00 0.00 0.00 0.00 0.00 0.00 0.00 0.00 0.00 0.00 0.00 0.00 0.00 0.00 0.00 0.00 0.00 0.00 0.01 0.01
0.00 0.00 0.00 0.00 0.00 0.00 0.00 0.00 0.00 0.00 0.01 0.00 0.00 0.00 0.00 0.00 0.00 0.00 0.00 0.00 0.00 0.00 0.00 0.00 0.00 0.00 0.00 0.00 0.00 0.00 0.00 0.00 0.00 0.00 0.00 0.00 0.00 0.00 0.00 0.00 0.00 0.00 0.01
0.00 0.00 0.00 0.00 0.00 0.00 0.00 0.00 0.00 0.00 0.00 0.00 0.00 0.00 0.00 0.00 0.00 0.00 0.00 0.00 0.00 0.00 0.00 0.00 0.00 0.00 0.00 0.00 0.00 0.00 0.00 0.00 0.00 0.00 0.00 0.00 0.00 0.00 0.00 0.00 0.00 0.00 0.02
0.00 0.00 0.00 0.00 0.01 0.02 0.02 0.01 0.01 0.00 0.00 0.00 0.00 0.00 0.00 0.00 0.00 0.00 0.00 0.00 0.00 0.00 0.00 0.00 0.00 0.00 0.00 0.00 0.00 0.00 0.00 0.00 0.00 0.00 0.00 0.00 0.00 0.00 0.00 0.00 0.00 0.00 0.01
0.04 0.01 0.02 0.01 0.01 0.02 0.01 0.00 0.00 0.00 0.00 0.00 0.00 0.00 0.00 0.00 0.00 0.00 0.00 0.00 0.00 0.00 0.00 0.00 0.00 0.00 0.00 0.00 0.00 0.00 0.00 0.00 0.00 0.00 0.00 0.00 0.00 0.00 0.00 0.00 0.00 0.00 0.01
0.23 0.07 0.04 0.06 0.03 0.01 0.01 0.00 0.00 0.00 0.00 0.00 0.00 0.00 0.00 0.00 0.00 0.00 0.00 0.00 0.00 0.00 0.00 0.00 0.00 0.00 0.00 0.00 0.00 0.00 0.00 0.00 0.00 0.00 0.00 0.00 0.00 0.00 0.00 0.00 0.00 0.00 0.01
0.26 0.18 0.09 0.04 0.02 0.01 0.00 0.00 0.00 0.00 0.00 0.00 0.00 0.00 0.00 0.00 0.00 0.00 0.00 0.00 0.00 0.00 0.00 0.00 0.00 0.00 0.00 0.00 0.00 0.00 0.00 0.00 0.00 0.00 0.00 0.00 0.00 0.00 0.00 0.00 0.00 0.00 0.00
0.12 0.13 0.10 0.03 0.02 0.01 0.01 0.00 0.00 0.00 0.00 0.00 0.00 0.00 0.00 0.00 0.00 0.00 0.00 0.00 0.00 0.00 0.00 0.00 0.00 0.00 0.00 0.00 0.00 0.00 0.00 0.00 0.00 0.00 0.00 0.00 0.00 0.00 0.00 0.00 0.00 0.00 0.00
0.06 0.05 0.08 0.08 0.03 0.01 0.01 0.00 0.00 0.00 0.00 0.00 0.00 0.00 0.00 0.00 0.00 0.00 0.00 0.00 0.00 0.00 0.00 0.00 0.00 0.00 0.00 0.00 0.00 0.00 0.00 0.01 0.01 0.00 0.00 0.00 0.00 0.00 0.00 0.00 0.00 0.00 0.00
0.11 0.10 0.09 0.07 0.04 0.01 0.00 0.00 0.00 0.00 0.00 0.00 0.00 0.00 0.00 0.00 0.00 0.00 0.00 0.00 0.00 0.00 0.00 0.00 0.00 0.00 0.00 0.00 0.00 0.00 0.00 0.02 0.05 0.04 0.01 0.00 0.00 0.00 0.00 0.00 0.00 0.00 0.00
0.17 0.09 0.07 0.03 0.02 0.00 0.00 0.00 0.00 0.00 0.00 0.00 0.00 0.00 0.00 0.00 0.00 0.00 0.00 0.00 0.00 0.00 0.00 0.00 0.00 0.00 0.00 0.00 0.00 0.00 0.00 0.00 0.01 0.03 0.03 0.01 0.00 0.00 0.00 0.00 0.00 0.00 0.00
0.23 0.08 0.05 0.03 0.00 0.00 0.00 0.00 0.00 0.00 0.00 0.00 0.00 0.00 0.00 0.00 0.00 0.00 0.00 0.00 0.00 0.00 0.00 0.00 0.00 0.00 0.00 0.00 0.00 0.00 0.00 0.00 0.00 0.00 0.01 0.02 0.01 0.01 0.01 0.00 0.00 0.00 0.00
0.30 0.16 0.03 0.00 0.00 0.00 0.00 0.00 0.00 0.00 0.00 0.00 0.00 0.00 0.00 0.00 0.00 0.00 0.00 0.00 0.00 0.00 0.00 0.00 0.00 0.00 0.00 0.00 0.00 0.00 0.00 0.00 0.00 0.00 0.00 0.01 0.01 0.03 0.04 0.02 0.02 0.01 0.00
0.09 0.13 0.01 0.00 0.00 0.00 0.00 0.00 0.00 0.00 0.00 0.00 0.00 0.00 0.00 0.00 0.00 0.00 0.00 0.00 0.00 0.00 0.00 0.00 0.00 0.00 0.00 0.00 0.00 0.00 0.00 0.00 0.00 0.00 0.00 0.00 0.00 0.01 0.02 0.03 0.03 0.03 0.01
0.00 0.00 0.00 0.00 0.00 0.00 0.00 0.00 0.00 0.00 0.00 0.00 0.00 0.00 0.00 0.00 0.00 0.00 0.00 0.00 0.00 0.00 0.00 0.00 0.00 0.00 0.00 0.00 0.00 0.00 0.00 0.00 0.00 0.00 0.00 0.00 0.00 0.02 0.01 0.01 0.04 0.05 0.03
0.01 0.00 0.00 0.00 0.00 0.00 0.00 0.00 0.00 0.00 0.00 0.00 0.00 0.00 0.00 0.00 0.00 0.00 0.00 0.00 0.00 0.00 0.00 0.00 0.00 0.00 0.00 0.00 0.00 0.00 0.00 0.00 0.00 0.00 0.00 0.00 0.00 0.00 0.01 0.01 0.01 0.04 0.05
0.01 0.00 0.00 0.00 0.00 0.00 0.00 0.00 0.00 0.00 0.00 0.00 0.00 0.00 0.00 0.00 0.00 0.00 0.00 0.00 0.00 0.00 0.00 0.00 0.00 0.00 0.00 0.00 0.00 0.00 0.00 0.00 0.00 0.00 0.00 0.00 0.00 0.00 0.00 0.00 0.01 0.03 0.07
MSLP
1008.48 1009.02 1009.67 1010.18 1010.61 1011.10 1011.27 1011.41 1011.65 1011.85 1012.03 1012.18 1012.20 1012.16 1012.15 1012.05 1011.95 1011.83 1011.63 1011.30 1011.05 1010.77 1010.44 1010.56 1010.02 1009.90 1010.50 1011.23 1011.76 1012.16 1012.72 1013.18 1013.58 1013.90 1014.18 1014.64 1015.14 1015.47 1016.12 1016.88 1017.05 1017.03 1017.52
1007.62 1008.33 1008.92 1009.55 1009.94 1010.26 1010.57 1010.76 1011.07 1011.36 1011.52 1011.75 1011.79 1011.82 1011.82 1011.79 1011.68 1011.38 1011.20 1011.07 1010.98 1010.57 1010.13 1009.81 1009.69 1009.52 1009.98 1010.68 1011.07 1011.79 1012.52 1012.86 1013.07 1013.60 1014.21 1014.88 1015.41 1015.67 1015.99 1016.61 1016.75 1016.99 1017.17
1006.80 1007.59 1008.24 1008.79 1009.27 1009.56 1009.96 1010.33 1010.62 1010.90 1011.05 1011.14 1011.21 1011.44 1011.53 1011.49 1011.48 1011.40 1011.32 1010.98 1010.65 1010.32 1010.33 1010.06 1009.73 1009.47 1009.73 1010.25 1010.86 1011.64 1012.43 1012.84 1012.92 1013.53 1014.17 1014.83 1015.49 1015.48 1015.88 1016.07 1016.35 1016.77 1016.80
1006.21 1006.85 1007.44 1007.89 1008.39 1008.88 1009.42 1009.85 1010.15 1010.45 1010.53 1010.69 1010.94 1011.17 1011.38 1011.51 1011.47 1011.33 1011.28 1010.96 1010.64 1010.42 1010.08 1009.76 1009.77 1009.79 1009.87 1010.08 1010.78 1011.68 1012.46 1012.81 1012.71 1012.64 1014.22 1014.67 1015.30 1015.51 1015.46 1015.70 1015.95 1015.97 1016.58
1005.66 1006.24 1006.67 1007.23 1007.72 1008.23 1008.65 1009.10 1009.51 1009.90 1010.13 1010.49 1010.76 1011.12 1011.34 1011.34 1011.57 1012.20 1011.77 1011.28 1010.78 1010.39 1010.15 1010.03 1010.06 1010.41 1010.25 1010.19 1011.00 1011.85 1012.48 1012.78 1012.54 1011.94 1013.52 1014.55 1014.83 1014.97 1014.93 1015.15 1015.14 1016.03 1017.01
1005.14 1005.75 1006.30 1006.80 1007.28 1007.78 1008.12 1008.61 1009.14 1009.59 1010.04 1010.68 1011.02 1011.13 1011.79 1011.73 1012.62 1012.71 1012.41 1010.92 1011.09 1011.04 1010.79 1010.67 1010.53 1010.49 1010.55 1010.75 1011.20 1011.88 1012.31 1012.57 1012.35 1011.75 1012.55 1013.17 1014.26 1014.41 1014.62 1014.97 1014.99 1016.04 1016.18
1004.75 1005.33 1005.82 1006.38 1006.86 1007.36 1007.80 1008.30 1008.83 1009.44 1010.09 1010.47 1011.23 1011.85 1012.16 1012.48 1012.93 1012.70 1012.27 1011.59 1011.13 1011.02 1010.76 1010.54 1010.55 1010.93 1011.03 1011.42 1012.02 1012.45 1012.94 1012.93 1012.71 1012.59 1012.44 1012.55 1013.73 1013.98 1014.85 1015.44 1015.55 1015.86 1016.11
1004.49 1004.77 1005.28 1005.84 1006.40 1006.96 1007.50 1008.07 1008.70 1009.39 1009.97 1010.82 1011.55 1012.01 1012.29 1013.03 1013.23 1012.76 1012.21 1011.54 1011.21 1011.37 1011.17 1011.04 1011.11 1011.50 1011.46 1011.75 1012.27 1012.89 1013.17 1013.43 1013.28 1012.55 1012.92 1012.97 1013.29 1014.09 1015.23 1015.51 1016.35 1016.84 1016.68
1004.01 1004.54 1004.83 1005.34 1005.92 1006.66 1007.32 1008.01 1008.72 1009.38 1010.35 1011.07 1011.65 1012.16 1012.57 1013.32 1013.55 1013.11 1012.38 1011.63 1011.63 1011.84 1011.74 1011.85 1011.52 1011.81 1012.27 1012.22 1012.19 1012.73 1013.10 1013.10 1013.76 1013.73 1013.61 1013.83 1013.87 1014.39 1014.83 1015.17 1015.97 1016.09 1016.05
1003.46 1004.56 1005.21 1005.78 1005.98 1006.63 1007.35 1008.19 1008.89 1009.93 1010.32 1010.80 1011.71 1012.47 1013.13 1013.19 1013.80 1013.46 1013.09 1011.60 1011.92 1011.99 1012.33 1012.25 1012.51 1012.50 1012.63 1012.67 1012.34 1012.48 1013.02 1013.32 1013.65 1013.77 1014.28 1014.65 1014.58 1014.90 1015.09 1014.68 1015.05 1015.28 1015.41
1003.86 1004.40 1005.34 1005.82 1006.79 1006.97 1007.77 1008.54 1009.32 1009.55 1010.47 1011.27 1012.32 1012.85 1013.10 1013.54 1013.91 1014.00 1013.62 1012.48 1012.22 1012.03 1012.36 1012.71 1012.96 1013.19 1013.09 1013.06 1012.78 1012.78 1013.03 1013.15 1013.39 1013.22 1013.39 1013.89 1014.37 1014.68 1014.63 1014.60 1014.61 1014.82 1015.03
1004.63 1004.29 1006.19 1005.58 1006.60 1008.35 1008.33 1008.91 1009.36 1009.91 1010.68 1011.84 1012.54 1012.83 1012.82 1013.15 1013.83 1014.13 1014.21 1013.99 1013.57 1012.52 1012.64 1013.02 1013.07 1013.50 1013.46 1013.45 1013.51 1013.78 1013.83 1013.82 1013.54 1013.03 1012.59 1012.88 1013.39 1013.87 1013.77 1014.14 1014.43 1014.63 1015.02
1004.67 1005.40 1006.11 1005.81 1006.15 1008.68 1009.05 1009.55 1010.24 1010.20 1010.67 1011.29 1012.15 1012.53 1012.26 1012.66 1013.10 1013.86 1014.07 1013.98 1013.81 1012.96 1013.09 1013.46 1013.42 1013.61 1013.48 1013.42 1013.53 1013.82 1013.89 1013.22 1012.74 1012.40 1012.29 1012.46 1012.85 1013.39 1013.61 1014.13 1014.57 1014.99 1015.31
1005.40 1005.71 1006.10 1006.59 1006.68 1008.85 1009.21 1009.12 1010.05 1010.53 1010.59 1010.65 1011.42 1011.77 1012.30 1012.83 1013.30 1013.72 1013.81 1013.21 1013.60 1013.55 1013.60 1013.79 1013.87 1013.58 1013.81 1013.21 1013.60 1013.89 1013.12 1012.84 1012.60 1012.18 1012.24 1012.61 1013.02 1013.87 1014.19 1014.28 1013.98 1014.21 1014.40
1005.89 1006.09 1006.49 1007.17 1007.71 1008.33 1010.84 1010.59 1011.09 1013.10 1013.05 1012.00 1012.33 1012.61 1013.13 1013.40 1014.98 1015.49 1015.43 1014.41 1014.14 1014.23 1013.91 1013.71 1014.01 1013.91 1013.57 1013.47 1013.06 1012.65 1012.81 1013.02 1013.24 1013.22 1012.68 1012.79 1013.18 1013.37 1013.66 1014.30 1013.99 1013.71 1014.08
1005.94 1006.32 1006.80 1007.71 1007.78 1009.27 1010.40 1011.10 1012.09 1012.95 1013.44 1013.51 1014.43 1014.20 1014.77 1015.50 1015.92 1015.64 1015.41 1015.07 1014.61 1014.30 1014.09 1013.95 1014.14 1013.85 1013.92 1013.88 1013.49 1013.16 1012.79 1013.19 1013.31 1012.99 1013.00 1012.92 1012.91 1013.14 1013.52 1014.03 1014.32 1014.32 1014.04
1005.81 1006.19 1006.93 1007.66 1007.88 1008.74 1010.26 1010.50 1010.18 1013.36 1012.49 1013.09 1014.66 1014.87 1015.61 1015.75 1016.16 1015.96 1015.58 1015.32 1014.78 1014.17 1014.23 1014.61 1014.54 1014.56 1014.49 1014.43 1014.17 1014.14 1013.95 1013.77 1013.90 1014.06 1013.72 1013.40 1013.00 1013.16 1013.75 1014.18 1014.02 1014.60 1014.59
1005.60 1006.31 1006.84 1007.55 1008.08 1008.72 1009.46 1010.28 1010.67 1010.68 1012.03 1013.69 1014.38 1014.36 1015.59 1015.52 1016.12 1015.90 1015.26 1015.18 1014.47 1014.05 1014.39 1014.64 1014.71 1014.96 1014.91 1015.10 1015.23 1014.95 1014.88 1014.32 1014.15 1014.23 1013.81 1013.00 1012.84 1013.11 1013.32 1013.80 1014.19 1014.48 1014.21
1005.70 1006.32 1006.83 1007.76 1008.28 1008.84 1009.20 1010.16 1010.68 1011.00 1011.88 1012.93 1013.29 1014.57 1014.39 1015.72 1015.61 1015.48 1014.91 1014.08 1013.96 1014.11 1014.16 1014.69 1014.99 1015.25 1015.39 1015.26 1015.43 1015.51 1015.25 1014.97 1014.87 1014.10 1013.98 1013.68 1013.62 1013.38 1012.97 1013.30 1013.83 1014.32 1014.17
1005.52 1005.73 1006.84 1007.88 1008.69 1009.24 1009.89 1010.29 1010.87 1011.81 1012.56 1013.28 1013.09 1013.72 1013.98 1013.53 1014.48 1014.75 1014.57 1014.51 1014.13 1014.29 1014.10 1014.66 1015.38 1015.52 1015.54 1015.46 1015.45 1015.50 1015.54 1015.39 1015.25 1014.83 1014.62 1013.94 1013.71 1013.62 1013.35 1012.80 1013.17 1013.77 1013.97
1005.51 1005.40 1006.02 1007.40 1008.34 1009.21 1009.85 1010.45 1011.36 1011.68 1012.45 1013.33 1014.00 1014.22 1014.93 1013.08 1014.61 1015.11 1015.10 1014.92 1014.78 1014.86 1015.02 1015.28 1015.29 1015.63 1015.80 1015.95 1015.71 1015.41 1015.42 1015.77 1015.87 1015.95 1015.46 1015.07 1014.62 1013.91 1013.54 1013.20 1012.81 1013.05 1013.66
1005.16 1005.06 1006.49 1008.01 1008.50 1009.84 1010.57 1010.97 1011.72 1012.06 1012.47 1012.88 1013.00 1015.03 1013.75 1014.41 1016.00 1016.23 1016.33 1016.43 1016.35 1016.56 1016.47 1016.17 1016.02 1015.68 1015.84 1015.98 1015.99 1015.86 1016.05 1016.10 1016.14 1016.30 1016.23 1015.81 1015.28 1014.70 1014.21 1013.70 1013.30 1013.11 1013.29
1006.94 1007.50 1007.10 1008.83 1009.42 1010.39 1010.97 1011.61 1011.96 1012.37 1012.47 1012.90 1013.37 1012.95 1014.38 1015.65 1016.86 1016.75 1016.81 1016.82 1016.94 1017.03 1017.11 1016.43 1016.32 1015.89 1015.80 1015.71 1015.71 1016.48 1016.19 1016.25 1016.80 1016.46 1016.16 1015.88 1015.81 1015.46 1014.69 1014.34 1013.87 1013.00 1012.83
1007.66 1008.17 1009.11 1009.83 1009.81 1010.60 1011.31 1011.83 1012.44 1012.65 1012.74 1013.23 1013.72 1014.69 1015.47 1015.79 1016.60 1016.98 1017.05 1016.97 1016.54 1016.67 1016.99 1016.81 1016.40 1016.26 1016.08 1015.95 1015.78 1016.21 1016.89 1016.44 1016.58 1016.57 1016.50 1016.08 1015.61 1015.11 1014.97 1014.41 1013.68 1013.18 1012.47
1008.06 1008.46 1008.85 1009.54 1010.12 1010.95 1011.93 1012.46 1012.54 1012.59 1012.91 1014.00 1015.06 1015.57 1016.08 1016.46 1016.47 1016.75 1016.71 1016.72 1016.58 1016.60 1016.68 1016.45 1016.01 1016.19 1016.08 1016.23 1015.82 1016.12 1017.55 1016.85 1016.73 1017.00 1016.50 1015.90 1015.60 1015.03 1014.17 1013.75 1013.66 1013.06 1012.67
1008.31 1008.95 1009.54 1010.17 1010.69 1011.05 1011.24 1011.77 1012.56 1013.37 1014.23 1015.03 1015.51 1016.07 1016.38 1016.67 1016.96 1016.79 1016.79 1016.91 1016.92 1016.94 1017.22 1016.63 1016.67 1016.61 1016.40 1016.20 1016.10 1016.66 1016.88 1016.34 1016.22 1016.40 1016.12 1015.34 1014.80 1014.41 1013.49 1012.57 1012.44 1012.61 1012.09
Thickness
5838 5835 5830 5826 5823 5819 5817 5816 5813 5812 5810 5807 5806 5804 5802 5801 5800 5798 5796 5795 5790 5789 5789 5782 5781 5781 5769 5758 5749 5739 5726 5716 5703 5695 5686 5674 5657 5648 5633 5621 5618 5617 5612
5842 5836 5831 5828 5825 5822 5819 5818 5816 5812 5812 5809 5807 5805 5804 5802 5801 5800 5796 5794 5789 5787 5787 5785 5782 5782 5772 5761 5753 5740 5726 5718 5710 5696 5685 5670 5654 5646 5637 5627 5622 5617 5617
5846 5838 5833 5829 5825 5823 5820 5818 5816 5813 5812 5811 5810 5805 5802 5802 5800 5798 5794 5793 5791 5789 5785 5782 5781 5780 5772 5763 5753 5739 5726 5718 5714 5699 5684 5671 5657 5652 5640 5637 5631 5626 5625
5845 5840 5834 5830 5828 5826 5822 5819 5816 5814 5813 5811 5809 5806 5803 5801 5800 5798 5793 5791 5790 5788 5788 5786 5780 5775 5769 5764 5754 5739 5726 5717 5716 5709 5685 5672 5661 5654 5649 5641 5638 5639 5632
5845 5839 5836 5834 5832 5829 5825 5822 5819 5815 5812 5809 5806 5803 5801 5801 5797 5787 5787 5787 5786 5786 5785 5781 5777 5769 5766 5764 5752 5739 5727 5717 5718 5713 5692 5675 5666 5659 5654 5651 5650 5642 5634
5845 5840 5838 5834 5831 5826 5824 5820 5816 5812 5808 5803 5800 5799 5793 5795 5781 5778 5779 5789 5783 5778 5775 5774 5773 5769 5764 5758 5750 5741 5731 5722 5719 5715 5704 5690 5674 5669 5665 5658 5657 5644 5642
5844 5841 5838 5834 5829 5825 5822 5818 5813 5809 5805 5800 5794 5789 5786 5784 5776 5776 5777 5782 5782 5778 5776 5774 5770 5764 5760 5752 5742 5734 5725 5719 5718 5714 5707 5700 5683 5680 5668 5659 5659 5654 5650
5840 5839 5837 5832 5827 5824 5819 5814 5810 5806 5801 5793 5787 5784 5782 5775 5770 5773 5775 5781 5779 5774 5772 5770 5764 5757 5754 5748 5739 5729 5723 5717 5716 5719 5710 5705 5696 5687 5673 5668 5658 5654 5655
5836 5833 5834 5832 5826 5820 5814 5809 5805 5800 5791 5786 5782 5778 5774 5768 5763 5765 5771 5776 5771 5766 5765 5760 5760 5753 5744 5741 5738 5728 5722 5721 5711 5708 5707 5702 5698 5690 5684 5680 5668 5666 5665
5833 5826 5824 5820 5819 5812 5807 5801 5797 5789 5786 5784 5775 5770 5763 5764 5755 5757 5759 5772 5763 5760 5756 5753 5746 5745 5738 5735 5735 5730 5722 5718 5712 5708 5703 5697 5695 5690 5688 5689 5686 5679 5679
5823 5820 5813 5812 5802 5804 5797 5791 5785 5784 5777 5770 5760 5759 5758 5755 5751 5748 5748 5759 5758 5756 5750 5745 5741 5733 5731 5727 5729 5726 5720 5718 5714 5713 5709 5704 5699 5695 5694 5692 5693 5693 5689
5807 5808 5793 5802 5796 5782 5784 5780 5777 5772 5765 5755 5750 5749 5753 5751 5742 5740 5738 5737 5739 5747 5742 5738 5735 5727 5724 5721 5718 5712 5710 5709 5710 5713 5714 5710 5705 5701 5702 5700 5696 5693 5693
5794 5788 5783 5792 5791 5767 5766 5764 5761 5764 5759 5753 5745 5743 5747 5746 5744 5735 5733 5731 5731 5737 5735 5728 5725 5721 5721 5719 5714 5710 5706 5712 5713 5713 5712 5711 5709 5706 5703 5698 5696 5694 5691
5773 5773 5774 5771 5773 5758 5758 5765 5757 5754 5755 5755 5747 5743 5740 5736 5733 5731 5730 5734 5726 5725 5723 5721 5718 5718 5713 5718 5712 5707 5714 5714 5712 5713 5711 5709 5706 5699 5695 5696 5697 5697 5697
5755 5756 5757 5754 5753 5748 5731 5739 5736 5717 5722 5737 5733 5729 5724 5724 5712 5705 5705 5715 5716 5711 5712 5715 5710 5708 5711 5710 5712 5715 5712 5708 5702 5700 5704 5702 5700 5699 5697 5694 5695 5696 5692
5738 5739 5740 5737 5741 5733 5727 5724 5713 5707 5703 5704 5698 5703 5702 5693 5690 5693 5697 5698 5700 5700 5704 5705 5702 5705 5702 5701 5704 5705 5708 5703 5701 5702 5698 5698 5698 5697 5693 5691 5690 5687 5691
5726 5727 5728 5723 5725 5722 5712 5717 5723 5693 5703 5700 5685 5683 5679 5682 5678 5680 5686 5687 5691 5695 5695 5690 5691 5691 5692 5691 5692 5691 5692 5694 5692 5688 5690 5690 5693 5692 5686 5680 5685 5682 5682
5713 5711 5715 5713 5709 5708 5705 5702 5704 5708 5699 5685 5673 5674 5665 5670 5667 5671 5679 5679 5687 5688 5685 5683 5684 5682 5682 5679 5677 5679 5679 5684 5686 5684 5686 5692 5691 5688 5687 5682 5677 5675 5681
5696 5698 5701 5698 5696 5694 5695 5691 5692 5691 5687 5679 5672 5657 5661 5651 5658 5664 5671 5681 5680 5677 5680 5674 5673 5672 5672 5673 5671 5669 5671 5673 5673 5681 5682 5683 5681 5681 5686 5684 5678 5668 5670
5683 5688 5686 5682 5680 5679 5678 5678 5677 5670 5665 5662 5663 5654 5653 5663 5659 5658 5663 5664 5669 5668 5671 5668 5663 5663 5664 5665 5665 5664 5663 5665 5666 5669 5670 5676 5678 5675 5675 5682 5680 5672 5666
5672 5656 5675 5672 5670 5668 5665 5663 5660 5659 5656 5651 5643 5640 5631 5659 5648 5647 5647 5649 5652 5654 5655 5655 5656 5655 5653 5651 5654 5657 5657 5652 5652 5650 5655 5658 5662 5668 5668 5670 5676 5675 5667
5652 5642 5650 5650 5653 5648 5646 5648 5644 5643 5642 5642 5642 5622 5634 5636 5624 5625 5627 5628 5630 5630 5634 5639 5642 5647 5646 5644 5643 5644 5641 5642 5642 5640 5640 5643 5647 5652 5655 5657 5662 5665 5663
5624 5626 5629 5627 5628 5626 5629 5628 5629 5627 5628 5627 5627 5633 5622 5615 5607 5614 5616 5618 5618 5619 5620 5627 5630 5636 5636 5637 5637 5628 5632 5633 5626 5629 5632 5634 5634 5634 5640 5644 5646 5657 5658
5614 5610 5607 5605 5615 5615 5616 5616 5612 5614 5614 5614 5612 5608 5605 5607 5603 5602 5605 5608 5614 5613 5611 5614 5619 5620 5623 5624 5626 5622 5615 5621 5618 5617 5618 5622 5626 5630 5629 5634 5641 5644 5653
5599 5600 5602 5600 5601 5601 5599 5598 5601 5603 5604 5598 5592 5592 5592 5593 5597 5596 5598 5600 5603 5603 5603 5606 5612 5611 5612 5611 5614 5612 5603 5610 5609 5606 5608 5613 5614 5619 5627 5630 5629 5634 5638
5588 5591 5591 5588 5588 5590 5593 5593 5590 5586 5582 5577 5579 5579 5580 5582 5583 5587 5588 5588 5589 5590 5589 5596 5596 5597 5599 5599 5600 5598 5596 5602 5602 5601 5602 5606 5609 5612 5620 5628 5629 5627 5632